Location: Bjelajci
(45.0103°N, 16.1758°E)
Time: 19:10:00
(UTC+00:00)

SL-16 R/B - Pass Details

Date: 14 July 2020
Orbit: 985 x 1006 km, 99.5° (Epoch: 05 August)

Event Time Altitude Azimuth Distance (km) Brightness Sun altitude
Exits shadow 01:57:01 16° 232° (SW) 2,380 3.9 -12.3°
Maximum altitude 02:00:06 22° 268° (W) 2,036 3.8 -11.9°
Drops below altitude 10° 02:04:50 10° 318° (NW) 2,788 5.0 -11.3°
Sets 02:07:59 0° 333° (NNW) 3,745 5.8 -11.0°
